AirNav   Duncan Aviation - Near you to keep you flying
 
 1744 users online  

M36 Frank Federer Memorial Airport
Brinkley, Arkansas, USA

GOING TO BRINKLEY?


FAA INFORMATION EFFECTIVE 14 JULY 2022

Location

FAA Identifier: M36
Lat/Long: 34-52-49.0000N 091-10-35.2000W
34-52.816667N 091-10.586667W
34.8802778,-91.1764444
(estimated)
Elevation: 195.3 ft. / 59.5 m (surveyed)
Variation: 02E (1995)
Time zone: UTC -5 (UTC -6 during Standard Time)
Zip code: 72021

Airport Operations

Airport use: Open to the public
Activation date: 04/1941
Control tower: no
ARTCC: MEMPHIS CENTER
FSS: JONESBORO FLIGHT SERVICE STATION
NOTAMs facility: JBR (NOTAM-D service available)
Attendance: MAR-SEP MON-SAT 0800-1700, OCT-FEB MON-FRI 0800-1700
Wind indicator: lighted
Segmented circle: yes
Lights: ACTVT MIRL RWY 02/20 - CTAF.
Beacon: white-green (lighted land airport)
Operates sunset to sunrise.

Airport Communications

CTAF/UNICOM: 122.8
  • APCH/DEP SVC PRVDD BY MEMPHIS ARTCC ON FREQS 135.3/335.8(BRINKLEY RCAG).

Nearby radio navigation aids

VOR radial/distance  VOR name  Freq  Var
UJMr305/30.8MARVELL VOR/DME109.6001E

Airport Services

Fuel available: 100LL
100LL:FUEL AVBL 24 HRS SELF SVC WITH CREDIT CARD.
Parking: hangars and tiedowns
Airframe service: MAJOR
Powerplant service: MAJOR

Runway Information

Runway 2/20

Dimensions: 4002 x 75 ft. / 1220 x 23 m
Surface: asphalt, in good condition
Weight bearing capacity: 
Single wheel: 12.0
Runway edge lights: medium intensity
RUNWAY 2  RUNWAY 20
Latitude: 34-52.519867N34-53.113748N
Longitude: 091-10.760575W091-10.411818W
Elevation: 195.1 ft.190.6 ft.
Traffic pattern: rightleft
Runway heading: 024 magnetic, 026 true204 magnetic, 206 true
Displaced threshold: 248 ft.150 ft.
Markings: nonprecision, in good conditionnonprecision, in good condition
Visual slope indicator: 2-light PAPI on left (3.00 degrees glide path)
PAPI OTS INDEFLY.
2-light PAPI on left (3.00 degrees glide path)
Touchdown point: yes, no lightsyes, no lights
Obstructions: 25 ft. pole, 525 ft. from runway, 200 ft. left of centerline, 13:1 slope to clear
ROAD & BRIDGE SIGNS AT 180 FT FM THR XNG CNTRLN.
50 ft. tree, 1250 ft. from runway, 130 ft. right of centerline, 21:1 slope to clear
APCH SLOPE 32:1 TO DSPLCD THLD.

Airport Ownership and Management from official FAA records

Ownership: Publicly-owned
Owner: CITY OF BRINKLEY
233 WEST CEDAR
BRINKLEY, AR 72021
Phone 870-734-1382
Manager: TERRY BURNETT
233 WEST CEDAR
BRINKLEY, AR 72021
Phone 870-734-5059

Airport Operational Statistics

Aircraft based on the field: 12
Single engine airplanes: 12
    
Aircraft operations: avg 61/day *
90% local general aviation
9% transient general aviation
<1% military
* for 12-month period ending 31 January 2022

Additional Remarks

WATER-TANK NW.
NUMEROUS AGRICULTURAL ACFT OPNS FM FEB-NOV 500 FT AGL AND BELOW.
FOR CD CTC MEMPHIS ARTCC AT 901-368-8453/8449.
MIGRATORY BIRDS ON & INVOF ARPT

Instrument Procedures

NOTE: All procedures below are presented as PDF files. If you need a reader for these files, you should download the free Adobe Reader.

NOT FOR NAVIGATION. Please procure official charts for flight.
FAA instrument procedures published for use from 14 July 2022 at 0901Z to 11 August 2022 at 0900z.

 
IAPs - Instrument Approach Procedures
RNAV (GPS) RWY 20   download (201KB)
NOTE: Special Take-Off Minimums/Departure Procedures apply   download (391KB)

Other nearby airports with instrument procedures:

6M7 - Marianna/Lee County Airport-Steve Edwards Field (19 nm E)
KDRP - Delta Regional Airport (22 nm NE)
M60 - Woodruff County Airport (24 nm N)
KSGT - Stuttgart Municipal Airport / Carl Humphrey Field (26 nm SW)
4M3 - Carlisle Municipal Airport (27 nm W)
 
Loc | Ops | Rwys | IFR | FBO | Links
Com | Nav | Svcs | Stats | Notes
Area around M36 (Frank Federer Memorial Airport)
 
Road maps at: MapQuest Bing Google
 
Aerial photo
WARNING: Photo may not be current or correct
Aerial photo of M36 (Frank Federer Memorial Airport)
Photo courtesy of the Arkansas Department of Aeronautics
Taken in the Spring of 2007

Do you have a better or more recent aerial photo of Frank Federer Memorial Airport that you would like to share? If so, please send us your photo.

 
Sectional chart

 
Airport distance calculator
Flying to Frank Federer Memorial Airport? Find the distance to fly.

From to M36

Sunrise and sunset
Times for 10-Aug-2022
 Local
(UTC-5)
 Zulu
(UTC)
Morning civil twilight05:5510:55
Sunrise06:2211:22
Sunset19:5800:58
Evening civil twilight20:2501:25

Current date and time
Zulu (UTC)  10-Aug-2022 14:41:57
Local (UTC-5)  10-Aug-2022 09:41:57
 
METAR
KSGT 
26nm SW 
101356Z AUTO 19006KT 10SM FEW008 26/23 A3013 RMK AO2 SLP201 T02610228
KSRC 
35nm NW 
101421Z AUTO 00000KT 10SM OVC007 24/23 A3014 RMK AO2 LTG DSNT NW-NE RAE12 P0000
KUTA 
43nm E 
101415Z AUTO 20003KT 10SM OVC140 26/24 A3012 RMK AO2 T02580237 $
KM19 
45nm N 
101424Z AUTO 19004KT 3SM BR SCT004 OVC011 23/23 A3014 RMK AO2 LTG DSNT SW AND W CIG 008V013
KCKM 
48nm SE 
101415Z AUTO 20004KT 10SM CLR 27/25 A3013 RMK A01
KLRF 
48nm W 
101406Z 17004KT 10SM BKN008 OVC080 24/22 A3009 RMK AO2A CIG 006V008 CIG 005 RWY07 SLP189 $
KAWM 
49nm E 
101353Z AUTO 18006KT 10SM OVC006 24/23 A3011 RMK AO2 SLP193 T02440228
TAF
KLRF 
48nm W 
101425Z 1014/1113 VRB06KT 9999 BKN008 OVC080 QNH3008INS BECMG 1015/1016 VRB06KT 8000 -SHRA BKN030 BKN100 QNH3007INS TEMPO 1019/1022 04015G25KT 4800 -TSRA BKN030CB BECMG 1023/1024 VRB06KT 9999 NSW BKN035 OVC050 QNH3001INS BECMG 1102/1103 04012G20KT 8000 -TSRA BKN015CB OVC025 QNH3000INS BECMG 1105/1106 05006KT 9999 NSW SCT080 QNH3007INS TX32/1019Z TN24/1014Z
NOTAMs
Click for the latest NOTAMs
NOTAMs are issued by the DoD/FAA and will open in a separate window not controlled by AirNav.

 

 
 

FBO, Fuel Providers, and Aircraft Ground Support

  
 Business Name 
 
 Contact 
 
 Services / Description 
 
Fuel Prices
 
Comments
  
Frank Federer Memorial Airport 870-589-1479
no information available

If you are affiliated with Frank Federer Memorial Airport and would like to show here your services, contact info, web link, logo, and more, click here
100LL
SS $4.49 
 Updated 15-Nov-2021
 
   write
SS=Self service
Update Fuel Prices
 

Would you like to see your business listed on this page?

 If your business provides an interesting product or service to pilots, flight crews, aircraft, or users of the Frank Federer Memorial Airport, you should consider listing it here.  To start the listing process, click on the button below
 
Add a business
 

Other Pages about Frank Federer Memorial Airport

Update a link
 
Copyright © AirNav, LLC. All rights reserved. Privacy Policy  Contact